{"data":{"norad_id":27704,"intl_designator":"2003-010A","name":"NAVSTAR 52 (USA 168)","alt_names":[],"object_type":"PAYLOAD","status":"ACTIVE","operator":null,"country":"US","launch_date":"2003-03-31","launch_site_code":"AFETR","launch_vehicle":null,"mission":null,"orbit_class":"UNKNOWN","rcs_meters":4.0247,"size_class":null,"mass_kg":null,"dimensions":null,"purposes":[],"wikipedia_slug":null,"has_3d_model":false,"image_url":null,"decayed_at":null,"tle_current":{"epoch":"2026-05-20T13:40:33.306816Z","epoch_age_seconds":455046,"freshness":"STALE","line1":"1 27704U 03010A   26140.56982994 -.00000076  00000+0  00000+0 0  9991","line2":"2 27704  54.8300 326.1803 0003007   1.9314 320.9052  1.94743016169375","mean_motion":1.94743016,"eccentricity":0.0003007,"inclination_deg":54.83,"raan_deg":326.1803,"arg_perigee_deg":1.9314,"mean_anomaly_deg":320.9052,"bstar":0,"rev_number":16937,"period_min":739.43601653987,"perigee_km":20700.69751678,"apogee_km":20716.987626294,"semimajor_km":27086.979571537,"source":"CELESTRAK","updated_at":"2026-05-25T13:37:55.032601Z"}}}